Location: Blanot
(47.1713°N, 4.2340°E)
Time: 08:40:39
(UTC+00:00)

Cosmos 921 Rocket - Pass Details

Date: 14 July 2020
Orbit: 572 x 631 km, 75.8° (Epoch: 14 August)

Event Time Altitude Azimuth Distance (km) Brightness Sun altitude
Rises 02:05:52 0° 340° (NNW) 2,901 7.1 -14.6°
Reaches altitude 10° 02:08:08 10° 340° (NNW) 1,982 6.2 -14.4°
Maximum altitude 02:12:34 85° 252° (WSW) 614 2.9 -14.0°
Drops below altitude 10° 02:16:53 10° 164° (SSE) 1,929 5.2 -13.6°
Enters shadow 02:17:11 - 164° (SSE) 2,053 5.4 -13.5°
